{"data":{"norad_id":38077,"intl_designator":"2012-006A","name":"LARES","alt_names":[],"object_type":"PAYLOAD","status":"ACTIVE","operator":null,"country":"IT","launch_date":"2012-02-13","launch_site_code":"FRGUI","launch_vehicle":null,"mission":null,"orbit_class":"UNKNOWN","rcs_meters":0.0379,"size_class":null,"mass_kg":null,"dimensions":null,"purposes":["science"],"wikipedia_slug":null,"has_3d_model":false,"image_url":null,"decayed_at":null,"tle_current":{"epoch":"2026-09-20T03:17:29.291712Z","epoch_age_seconds":45880,"freshness":"FRESH","line1":"1 38077U 12006A   26263.13714458 -.00000045  00000+0 -42755-4 0  9993","line2":"2 38077  69.4896 130.0683 0010924 303.3038  56.6942 12.54932315668980","mean_motion":12.54932315,"eccentricity":0.0010924,"inclination_deg":69.4896,"raan_deg":130.0683,"arg_perigee_deg":303.3038,"mean_anomaly_deg":56.6942,"bstar":-4.2755e-5,"rev_number":66898,"period_min":114.74722443497,"perigee_km":1435.3871159591,"apogee_km":1452.4767721881,"semimajor_km":7822.0689440736,"source":"CELESTRAK","updated_at":"2026-09-20T09:00:47.282271Z"}}}